Flag for Germany Weather past 2 weeks in Coburg, Bavaria, Germany

Now
51 °F

Overcast.


Feels Like: 51 °F
Forecast: 39 / 67 °F
Wind: 2 mph from Southwest

Location: Bamberg

Current Time: May 30, 2015 at 9:41:01 AM

Latest Report: May 30, 2015 at 9:00 AM


Visibility: 41 mi

Pressure: 29.94 "Hg

Humidity: 86%

Dew point: 47 °F

Location of CoburgLocation

Historic Weather in Coburg — Graph

°F

Coburg temperature yesterday

Maximum temperature yesterday: 65 °F (at 12:00 PM)
Minimum temperature yesterday: 48 °F (at 6:00 AM)
Average temperature yesterday: 58 °F

Past Weeks' High & Low Weather Summary

 TemperatureHumidityPressure
High74 °F (May 18, 5:00 PM)98% (May 29, 3:00 AM)30.38 "Hg (May 29, 3:00 AM)
Low34 °F (May 22, 6:00 AM)27% (May 15, 5:00 PM)29.70 "Hg (May 18, 8:00 PM)
Average55 °F65%30.05 "Hg
* Reported May 15 8:00 AM — May 30 8:00 AM, Coburg, Weather by CustomWeather, © 2015

Note: Actual official high and low records may vary slightly from our data, if they occured in-between our weather recording intervals... More about our weather records

Advertising

Coburg weather history for previous 24 hours

 ConditionsComfort  
Time TempWeatherWind HumidityBarometerVisibility
8:00 AM
Sat, May 30
49 °FLight rain. Low clouds.1 mph91%29.93 "Hg6 mi
7:00 AM50 °FDrizzle. Low clouds.5 mph88%29.91 "Hg25 mi
6:00 AM55 °FLight rain. Overcast.3 mph82%29.88 "Hg8 mi
5:00 AM55 °FOvercast.3 mph79%29.86 "Hg17 mi
4:00 AM54 °FOvercast.3 mph83%29.87 "Hg13 mi
3:00 AM54 °FOvercast.2 mph82%29.87 "Hg18 mi
2:00 AM54 °FOvercast.2 mph83%29.87 "Hg19 mi
1:00 AM54 °FPassing clouds.2 mph81%29.87 "Hg22 mi
12:00 AM55 °FPassing clouds.2 mph88%29.86 "Hg16 mi
11:00 PM
Fri, May 29
56 °FOvercast.2 mph92%29.85 "Hg11 mi
10:00 PM57 °FOvercast.2 mph89%29.84 "Hg14 mi
9:00 PM58 °FOvercast.2 mph79%29.83 "Hg28 mi
8:00 PM60 °FOvercast.3 mph73%29.83 "Hg31 mi
7:00 PM61 °FLight rain. Overcast.2 mph71%29.82 "Hg31 mi
6:00 PM62 °FOvercast.2 mph65%29.82 "Hg43 mi
5:00 PM64 °FLight rain. Overcast.3 mph61%29.83 "Hg34 mi
4:00 PM65 °FOvercast.2 mph55%29.85 "Hg37 mi
3:00 PM61 °FOvercast.2 mph71%29.88 "Hg25 mi
2:00 PM62 °FLight rain. Overcast.5 mph62%29.89 "Hg18 mi
1:00 PM65 °FOvercast.3 mph52%29.89 "Hg34 mi
12:00 PM65 °FOvercast.3 mph50%29.90 "Hg31 mi
11:00 AM64 °FOvercast.3 mph54%29.92 "Hg28 mi
10:00 AM62 °FOvercast.2 mph58%29.93 "Hg22 mi
9:00 AM59 °FOvercast.2 mph74%29.95 "Hg12 mi
Weather by CustomWeather, © 2015

See weather overviewHow to use our weather pages